Regional Weather Roundup
Issued by NWS Sioux Falls, SD

Home | Current Version | Previous Version | Text Only | Print | Product List | Glossary Off
Versions: 1 2 3 4 5 6 7 8 9 10 11 12 13 14 15 16 17 18 19 20 21 22 23 24 25 26 27 28 29 30 31 32 33 34 35 36 37 38 39 40 41 42 43 44 45 46 47 48 49 50

000
ASUS43 KFSD 210110
RWRFSD

WEATHER ROUNDUP FOR SE SOUTH DAKOTA/SW MINNESOTA/NW IOWA
NATIONAL WEATHER SERVICE SIOUX FALLS SD
800 PM CDT MON APR 20 2015

NOTE: "FAIR" INDICATES FEW OR NO CLOUDS BELOW 12,000 FEET WITH NO
SIGNIFICANT WEATHER AND OR OBSTRUCTIONS TO VISIBILITY.


SDZ038>040-050-052>070-210200-
SOUTHEAST SOUTH DAKOTA

CITY           SKY/WX    TMP DP  RH WIND       PRES   REMARKS
BROOKINGS      CLEAR     45  25  45 NW21      29.68R
CHAMBERLAIN    CLEAR     49   5  16 NW12G25   29.77S
HURON          CLEAR     49   7  18 NW20      29.71R
MADISON        FAIR      46  21  36 NW21      29.68R
MITCHELL       CLEAR     51   3  14 NW24G36   29.73R
SIOUX FALLS    PTCLDY    49   7  18 NW22G30   29.67S
WINNER         CLOUDY    52  13  21 NW21      29.79R
YANKTON        CLEAR     50   7  17 NW17G25   29.73R
$$

MNZ071-072-080-081-089-090-097-098-210200-
SOUTHWEST MINNESOTA

CITY           SKY/WX    TMP DP  RH WIND       PRES   REMARKS
FAIRMONT       CLOUDY    43  25  49 NW18G25   29.63S
JACKSON        MOCLDY    41  27  56 NW13      29.65F
LUVERNE        CLEAR     48  21  34 NW16G25   29.67S
MARSHALL       CLOUDY    43  23  45 NW30G36   29.65R
MONTEVIDEO     CLOUDY    41  32  70 N13       29.65R
PIPESTONE      CLEAR     46  25  42 N17G28    29.65S
REDWOOD FALLS  MOCLDY    42  30  62 NW17G31   29.62S
TRACY          CLOUDY    43  28  55 NW21G28   29.65S
WORTHINGTON    PTCLDY    43  25  49 NW15      29.66S
$$

IAZ001>003-012>014-020>022-031-032-NEZ013-014-SDZ071-210200-
NORTHWEST IOWA

CITY           SKY/WX    TMP DP  RH WIND       PRES   REMARKS
CHEROKEE       CLEAR     49  11  21 NW13G24   29.69R
DENISON        PTCLDY    50  10  20 NW17G24   29.70R
ESTHERVILLE    PTCLDY    41  27  57 NW16      29.66R
LE MARS        CLEAR     50   9  18 NW16G23   29.72R
ORANGE CITY    CLEAR     46  19  34 NW17G25   29.69R
SHELDON        CLEAR     46  25  42 NW13G24   29.66S
SIOUX CITY     PTCLDY    53   8  16 NW22G30   29.71R
SPENCER        PTCLDY    46  28  49 NW20G28   29.67R
STORM LAKE     CLEAR     48  12  23 NW18G25   29.69R
$$

ABBREVIATIONS USED IN REMARKS
   TC - TEMPERATURE IN CELSIUS
  WCI - WIND CHILL INDEX
   HX - HEAT INDEX
  VSB - VISIBILITY




USA.gov is the U.S. government's official web portal to all federal, state and local government web resources and services.